[[{"header":{"parameterUnit":"m.s-1","parameterCategory":1,"la1":30.2991,"la2":30.254,"lo1":-89.0895,"lo2":-89.0444,"dy":0.0017,"dx":0.0017,"nx":28,"ny":28,"refTime":"2025-03-24T03:00:00:Z","depth":0,"parameterNumber":2,"parameterNumberName":"U-component_of_WINDS"},"data":[0,0,0,0,0,0,0,0,0,0,0,0,0,0,0,0,0,0,0,0,0,0,0,0,0,0,0,0,0,0,0,0,0,0,0,0,0,0,0,0,0,0,0,0,0,0,0,0,0,0,0,0,0,0,0,0,0,0,1.1658,1.1658,0,1.1687,1.1687,1.1687,1.1669,1.1668,1.1668,1.1667,1.1701,1.1702,1.1704,0,0,0,0,0,0,0,0,0,0,0,0,0,1.1592,1.1593,1.1658,1.1658,1.1659,1.1687,1.1687,1.1687,1.1669,1.1668,1.1667,1.1666,1.17,1.1702,1.1704,0,0,0,0,0,0,0,0,0,0,0,0,0,1.1621,1.1593,1.1658,1.1653,1.1653,1.1687,1.1687,1.1688,1.167,1.1668,1.1667,1.1666,1.1699,1.1702,1.1704,1.1746,0,0,1.1712,1.1713,0,0,0,0,0,0,0,0,1.1619,1.1623,1.1653,1.1653,1.1653,1.1673,1.1676,1.1707,1.167,1.1663,1.1667,1.1665,1.1693,1.1696,1.1704,1.1747,1.1749,1.1712,1.1714,1.1715,1.1716,0,0,0,0,0,0,0,1.1617,1.1622,1.1669,1.1654,1.1654,1.1651,1.1653,1.1682,1.1685,1.1664,1.1663,1.1666,1.1692,1.1702,1.1705,1.1749,1.1712,1.1714,1.1716,1.1717,1.183,1.1832,0,0,0,0,0,0,1.1615,1.162,1.1668,1.167,1.1632,1.1653,1.1656,1.1668,1.1685,1.1686,1.1667,1.1665,1.1698,1.1702,1.1706,1.1757,1.1715,1.1717,1.1719,1.1829,1.183,1.1832,0,0,0,0,0,0,1.1613,1.1619,1.1667,1.1645,1.1651,1.1655,1.1669,1.1669,1.1678,1.1687,1.1688,1.1676,1.1697,1.1702,1.1736,1.1758,1.1718,1.1721,1.1827,1.1829,1.1831,1.1858,0,0,0,0,0,0,1.1612,1.1619,1.1634,1.1645,1.1652,1.1696,1.167,1.1671,1.1682,1.168,1.1695,1.1697,1.1696,1.1732,1.1739,1.176,1.1723,1.1825,1.1828,1.1831,1.1855,1.1861,1.1866,0,0,0,0,0,1.1609,1.1641,1.1634,1.164,1.167,1.1697,1.1701,1.1699,1.1684,1.17,1.1706,1.1696,1.1754,1.1736,1.1743,1.1766,1.1824,1.1827,1.183,1.1853,1.186,1.1866,0,0,0,0,0,0,1.1632,1.1642,1.1635,1.1671,1.1683,1.1694,1.1713,1.1706,1.1724,1.1721,1.1719,1.1723,1.1758,1.1765,1.1745,1.1808,1.1787,1.1792,1.1802,1.1808,1.1813,1.1812,1.1725,0,0,0,0,0,1.1641,1.1661,1.1669,1.17,1.1706,1.1709,1.172,1.1718,1.1731,1.1736,1.1744,1.1759,1.178,1.1795,1.1815,1.1856,1.186,1.1875,1.1881,1.1885,1.189,1.1914,1.1921,1.1843,1.1843,1.1843,0,0,1.1661,1.1668,1.1681,1.1705,1.1714,1.1736,1.1713,1.1737,1.1754,1.174,1.1773,1.1779,1.1795,1.1833,1.1851,1.1841,1.1912,1.1889,1.1892,1.1895,1.1918,1.1925,1.1932,1.1845,1.1845,1.1844,0,0,1.1707,1.1714,1.1741,1.1751,1.1765,1.1766,1.1773,1.1785,1.1788,1.1821,1.1811,1.1832,1.1869,1.1881,1.1892,1.1944,1.1937,1.1951,1.1978,1.2002,1.2008,1.2013,1.2033,1.204,1.1955,1.1955,1.1955,0,1.173,1.1761,1.1757,1.1781,1.1793,1.178,1.1809,1.1819,1.1839,1.1848,1.1836,1.1882,1.1892,1.1933,1.1946,1.1955,1.1964,1.1949,1.2007,1.2013,1.2018,1.2037,1.2044,1.1957,1.1957,1.1956,1.1956,0,1.1789,1.1811,1.1831,1.185,1.1864,1.189,1.1891,1.1906,1.1902,1.1906,1.194,1.1951,1.1974,1.1983,1.198,1.2025,1.2019,1.2007,1.1986,1.2027,1.2045,1.2052,1.1959,1.1959,1.1958,1.1958,0,0,1.1851,1.1867,1.1875,1.1884,1.1899,1.1916,1.1943,1.1964,1.1977,1.1992,1.2016,1.2047,1.2037,1.2049,1.2047,1.2068,1.211,1.2054,1.2054,1.2065,1.2162,1.2172,1.218,1.2105,1.2106,1.2107,1.2161,0,1.19,1.1945,1.1942,1.1985,1.2006,1.1995,1.2019,1.2031,1.2035,1.2055,1.206,1.2083,1.2067,1.2074,1.2094,1.2101,1.213,1.2097,1.2129,1.213,1.2126,1.2189,1.2199,1.2249,1.2168,1.2169,1.217,0,1.1962,1.1978,1.2023,1.2035,1.2044,1.2065,1.2085,1.2103,1.2118,1.212,1.2134,1.2129,1.2158,1.2136,1.2176,1.2154,1.2167,1.2172,1.2174,1.2178,1.2153,1.2196,1.2265,1.2273,1.2181,1.218,1.2179,0,1.2005,1.2037,1.2069,1.2077,1.2091,1.2107,1.2114,1.2127,1.214,1.2158,1.2167,1.2188,1.22,1.2218,1.222,1.2203,1.2262,1.2239,1.2265,1.2265,1.2279,1.2278,1.2352,1.2285,1.2285,1.2285,1.2285,0,1.206,1.2088,1.2088,1.2108,1.214,1.2137,1.2169,1.2175,1.2187,1.2208,1.22,1.2221,1.2222,1.2244,1.2245,1.228,1.2285,1.2289,1.2289,1.229,1.229,1.2299,1.2296,1.2287,1.2287,1.2286,1.2286,0,1.2113,1.2114,1.2148,1.2159,1.2162,1.2186,1.2196,1.2216,1.2219,1.2247,1.2253,1.2259,1.2284,1.2287,1.2317,1.2319,1.236,1.2357,1.2355,1.2355,1.2382,1.238,1.2465,1.2477,1.2402,1.2402,1.2403,0,1.2149,1.217,1.2183,1.2197,1.2205,1.2226,1.2239,1.2238,1.2252,1.2271,1.2289,1.2313,1.2332,1.2374,1.2382,1.2405,1.2403,1.2431,1.2406,1.2407,1.2405,1.2404,1.2407,1.2436,1.2437,1.2438,1.2438,0,1.2212,1.2212,1.223,1.225,1.2266,1.2281,1.2296,1.2308,1.2308,1.2325,1.235,1.2365,1.2396,1.2421,1.2444,1.2453,1.2447,1.2446,1.2453,1.2455,1.2454,1.2456,1.237,1.2444,1.2444,1.2443,1.2443,1.2443,1.2259,1.2278,1.229,1.2312,1.2322,1.2336,1.2355,1.2361,1.2381,1.2405,1.2403,1.2432,1.2447,1.2477,1.2488,1.2511,1.2502,1.2513,1.2516,1.2519,1.2522,1.2449,1.2515,1.2515,1.2515,1.2515,1.2515,0,1.2323,1.233,1.235,1.2371,1.2388,1.2379,1.2395,1.2411,1.2435,1.2449,1.2468,1.2498,1.2522,1.2532,1.2556,1.2573,1.2571,1.258,1.2579,1.2582,1.2528,1.2519,1.2581,1.2581,1.2581,1.2581,1.2581,1.2581,1.2358,1.2391,1.2392,1.243,1.2437,1.2464,1.2474,1.2487,1.2499,1.2532,1.2552,1.2557,1.257,1.2596,1.2618,1.262,1.263,1.2641,1.2642,1.2592,1.2585,1.2579,1.2571,1.2643,1.2643,1.2694,1.2695,1.2695]},{"header":{"parameterUnit":"m.s-1","parameterCategory":1,"la1":30.2991,"la2":30.254,"lo1":-89.0895,"lo2":-89.0444,"dy":0.0017,"dx":0.0017,"nx":28,"ny":28,"refTime":"2025-03-24T03:00:00:Z","depth":0,"parameterNumber":3,"parameterNumberName":"V-component_of_WINDS"},"data":[0,0,0,0,0,0,0,0,0,0,0,0,0,0,0,0,0,0,0,0,0,0,0,0,0,0,0,0,0,0,0,0,0,0,0,0,0,0,0,0,0,0,0,0,0,0,0,0,0,0,0,0,0,0,0,0,0,0,1.482,1.4819,0,1.4804,1.4804,1.4804,1.4763,1.4762,1.4761,1.476,1.4742,1.4742,1.4743,0,0,0,0,0,0,0,0,0,0,0,0,0,1.4806,1.4807,1.482,1.4819,1.4819,1.4805,1.4804,1.4804,1.4763,1.4762,1.4761,1.476,1.4742,1.4742,1.4743,0,0,0,0,0,0,0,0,0,0,0,0,0,1.4804,1.4807,1.482,1.4797,1.4795,1.4805,1.4804,1.4804,1.4763,1.4762,1.4761,1.476,1.4742,1.4742,1.4743,1.4772,0,0,1.4744,1.4744,0,0,0,0,0,0,0,0,1.4804,1.4804,1.4801,1.4799,1.4796,1.4784,1.4793,1.4793,1.4764,1.4775,1.476,1.4759,1.4757,1.4756,1.4756,1.4771,1.477,1.4744,1.4744,1.4745,1.4745,0,0,0,0,0,0,0,1.4804,1.4805,1.4814,1.4801,1.4798,1.4786,1.4784,1.4793,1.4774,1.4774,1.4771,1.477,1.4755,1.4756,1.4755,1.477,1.4744,1.4745,1.4745,1.4745,1.4801,1.4802,0,0,0,0,0,0,1.4808,1.4805,1.4814,1.4813,1.4797,1.4787,1.4785,1.4789,1.4773,1.477,1.4771,1.4768,1.4755,1.4755,1.4754,1.4783,1.4745,1.4745,1.4745,1.48,1.4802,1.4803,0,0,0,0,0,0,1.4808,1.481,1.4815,1.4808,1.4808,1.4789,1.4794,1.479,1.479,1.4771,1.4767,1.4775,1.4754,1.4754,1.4767,1.4782,1.4745,1.4746,1.4799,1.4801,1.4802,1.4844,0,0,0,0,0,0,1.4808,1.481,1.4823,1.4809,1.4809,1.4829,1.4795,1.4791,1.4791,1.4787,1.4774,1.477,1.4753,1.4766,1.4767,1.4782,1.4746,1.4797,1.4799,1.4802,1.4841,1.4847,1.4852,0,0,0,0,0,1.4808,1.4836,1.4824,1.4825,1.4824,1.4831,1.483,1.4811,1.4793,1.4804,1.4791,1.4771,1.4781,1.4768,1.4769,1.4784,1.4796,1.4799,1.4801,1.4839,1.4846,1.4852,0,0,0,0,0,0,1.4852,1.4834,1.482,1.4845,1.4839,1.4824,1.4838,1.482,1.4819,1.4815,1.479,1.4787,1.4802,1.4794,1.4781,1.4808,1.4785,1.4788,1.4813,1.4819,1.4825,1.4825,1.4747,0,0,0,0,0,1.4865,1.4873,1.4856,1.4879,1.4877,1.4858,1.486,1.4845,1.4838,1.4835,1.4823,1.4816,1.4816,1.4818,1.4818,1.484,1.4834,1.485,1.4856,1.4861,1.4863,1.4869,1.4874,1.4812,1.4812,1.4812,0,0,1.4892,1.4882,1.4889,1.4888,1.4882,1.4888,1.4856,1.4866,1.4868,1.4836,1.4847,1.4837,1.4827,1.4843,1.485,1.4837,1.4879,1.4864,1.4868,1.4868,1.4872,1.4878,1.4883,1.4814,1.4813,1.4813,0,0,1.4942,1.4938,1.4954,1.4948,1.4939,1.4925,1.4929,1.4915,1.4907,1.4917,1.4891,1.4894,1.4897,1.4889,1.4886,1.4928,1.4907,1.4928,1.4956,1.4962,1.4967,1.4971,1.4982,1.4987,1.4931,1.4931,1.4931,0,1.4976,1.4986,1.4965,1.4974,1.4972,1.4943,1.4957,1.4952,1.4943,1.4941,1.4927,1.4927,1.4919,1.493,1.4939,1.4939,1.4939,1.4929,1.4969,1.4972,1.4976,1.4986,1.4991,1.4933,1.4933,1.4933,1.4933,0,1.5025,1.5032,1.5046,1.5037,1.5037,1.5049,1.5027,1.5029,1.5012,1.4999,1.5007,1.4995,1.4989,1.4991,1.4977,1.4999,1.4991,1.4974,1.4949,1.4985,1.4993,1.4998,1.4937,1.4936,1.4935,1.4935,0,0,1.5105,1.5082,1.5087,1.508,1.5066,1.507,1.5078,1.5073,1.5073,1.5067,1.507,1.5071,1.5053,1.5049,1.5033,1.5038,1.5066,1.5019,1.5018,1.5026,1.5085,1.5097,1.5102,1.5053,1.5054,1.5055,1.5085,0,1.515,1.5164,1.5143,1.5161,1.5164,1.5134,1.514,1.513,1.5117,1.5116,1.51,1.51,1.5079,1.5075,1.5079,1.5062,1.5078,1.506,1.5053,1.5053,1.5055,1.5107,1.5121,1.515,1.5089,1.5089,1.509,0,1.5204,1.5199,1.5217,1.5197,1.5198,1.5204,1.5195,1.5196,1.5182,1.5171,1.5164,1.5144,1.5147,1.5124,1.5125,1.5114,1.5109,1.51,1.5101,1.5098,1.5073,1.5103,1.516,1.5163,1.5096,1.5095,1.5095,0,1.5256,1.5254,1.5263,1.5259,1.5237,1.5241,1.5232,1.5217,1.5214,1.5205,1.5201,1.5194,1.5189,1.5181,1.5157,1.5144,1.516,1.5136,1.5148,1.5149,1.5153,1.5152,1.5207,1.5154,1.5154,1.5154,1.5154,0,1.5306,1.5318,1.5285,1.5291,1.5301,1.5275,1.5285,1.5272,1.5259,1.5259,1.5232,1.5232,1.5202,1.5198,1.5179,1.5181,1.5179,1.5168,1.5163,1.517,1.5171,1.5165,1.5162,1.5155,1.5154,1.5154,1.5154,0,1.5366,1.5345,1.5352,1.533,1.5324,1.5332,1.5311,1.5313,1.5297,1.5297,1.5296,1.5269,1.5262,1.5238,1.5226,1.5213,1.5219,1.521,1.5224,1.522,1.5232,1.523,1.5283,1.5287,1.5235,1.5235,1.5236,0,1.5398,1.5406,1.5383,1.5381,1.5373,1.5371,1.5367,1.534,1.5337,1.5319,1.5322,1.5313,1.5305,1.5294,1.5273,1.5262,1.5251,1.527,1.5249,1.5254,1.5247,1.5246,1.5245,1.5274,1.5275,1.5275,1.5276,0,1.5457,1.5445,1.5441,1.5431,1.5426,1.5418,1.5407,1.5407,1.5377,1.5373,1.5366,1.5359,1.5345,1.5335,1.5319,1.5307,1.5285,1.5283,1.5284,1.529,1.5296,1.529,1.5233,1.5281,1.5281,1.528,1.528,1.528,1.5501,1.5505,1.5488,1.5483,1.5472,1.5461,1.5461,1.5444,1.5438,1.5424,1.5409,1.5402,1.5383,1.536,1.5349,1.5341,1.533,1.5334,1.5334,1.5335,1.5336,1.5299,1.5339,1.5339,1.5339,1.5338,1.5338,0,1.5555,1.5542,1.5538,1.5523,1.5517,1.5498,1.5484,1.548,1.5475,1.546,1.5451,1.544,1.5429,1.5406,1.5392,1.539,1.5379,1.5387,1.5386,1.5382,1.5349,1.5347,1.5395,1.5395,1.5395,1.5395,1.5395,1.5395,1.5583,1.5586,1.5572,1.5568,1.5554,1.5548,1.5541,1.553,1.5518,1.5507,1.5498,1.5482,1.5462,1.5446,1.5434,1.5427,1.5422,1.5432,1.5422,1.5391,1.5385,1.538,1.5378,1.5432,1.5432,1.5455,1.5455,1.5455]}]]